DW4139 Weather Reports


time (UTC)temp
F
wind
direction
speed
knots
gust
knots
rain 1hr
in
rain 24hr
in
rain mn
in
humidity
%
barometer
mb
20260508054904 49 202 0.0 0.0 0.00 0.00 0.00 65 1016.8
20260508054405 49 202 0.0 0.0 0.00 0.00 0.00 66 1017.1
20260508053405 49 202 0.0 0.0 0.00 0.00 0.00 65 1017.1
20260508052905 49 202 0.0 0.0 0.00 0.00 0.00 65 1017.1
20260508051405 50 225 0.0 0.0 0.00 0.00 0.00 65 1017.1
20260508050904 50 248 0.0 0.0 0.00 0.00 0.00 64 1017.1
20260508050404 50 216 0.0 0.0 0.00 0.00 0.00 64 1017.1
20260508045405 49 248 0.0 0.0 0.00 0.00 0.00 64 1017.4
20260508044904 49 251 0.0 0.0 0.00 0.00 0.00 63 1017.2
20260508043904 49 225 0.0 0.0 0.00 0.00 0.00 63 1017.1
20260508042905 49 248 3.5 6.1 0.00 0.00 0.00 63 1017.4
20260508042404 49 225 0.9 0.9 0.00 0.00 0.00 63 1017.1
20260508041904 49 245 0.0 0.0 0.00 0.00 0.00 64 1017.1
20260508041404 49 248 0.0 0.0 0.00 0.00 0.00 64 1017.1
20260508040404 48 185 0.0 0.0 0.00 0.00 0.00 65 1017.1
20260508035905 48 180 0.0 0.0 0.00 0.00 0.00 65 1017.1
20260508035404 48 180 0.0 0.0 0.00 0.00 0.00 65 1017.1
20260508034905 48 180 0.0 0.0 0.00 0.00 0.00 66 1017.1
20260508034405 48 180 0.0 0.0 0.00 0.00 0.00 66 1017.1
20260508033905 48 180 0.0 0.0 0.00 0.00 0.00 67 1017.1
20260508033404 48 196 0.0 0.0 0.00 0.00 0.00 67 1017.3
20260508032905 48 202 0.0 0.0 0.00 0.00 0.00 67 1017.1
20260508032405 48 201 0.0 0.0 0.00 0.00 0.00 67 1017.1
20260508031405 48 180 0.0 0.0 0.00 0.00 0.00 67 1017.1
20260508030904 48 180 0.0 0.0 0.00 0.00 0.00 67 1017.1
20260508025905 48 202 0.0 0.0 0.00 0.00 0.00 68 1017.1
20260508025404 48 202 0.0 0.0 0.00 0.00 0.00 68 1017.1
20260508024904 47 202 0.0 0.0 0.00 0.00 0.00 68 1017.4
20260508024404 47 202 0.0 0.0 0.00 0.00 0.00 68 1017.4
20260508023905 47 202 3.5 4.3 0.00 0.00 0.00 68 1017.4
20260508022904 47 202 0.0 0.0 0.00 0.00 0.00 68 1017.4
20260508022404 47 225 0.0 0.0 0.00 0.00 0.00 67 1017.1
20260508021405 48 225 0.0 0.0 0.00 0.00 0.00 65 1017.1
20260508020905 48 248 0.0 0.0 0.00 0.00 0.00 64 1017.2
20260508020404 48 248 0.0 0.0 0.00 0.00 0.00 64 1017.1
20260508015405 49 248 0.0 0.0 0.00 0.00 0.00 64 1017.1
20260508014904 49 248 0.0 0.0 0.00 0.00 0.00 64 1017.1
20260508013904 50 248 0.0 0.0 0.00 0.00 0.00 63 1017.1
20260508013405 50 248 0.0 0.0 0.00 0.00 0.00 63 1017.1
20260508012904 50 225 0.0 0.0 0.00 0.00 0.00 63 1017.1
20260508011904 50 248 0.0 1.7 0.00 0.00 0.00 62 1017.1
20260508011404 51 225 0.9 1.7 0.00 0.00 0.00 63 1017.1
20260508010904 51 228 0.0 0.0 0.00 0.00 0.00 62 1017.1
20260508010405 51 267 0.0 0.0 0.00 0.00 0.00 62 1017.1
20260508004904 51 229 0.0 0.0 0.00 0.00 0.00 61 1017.1
20260508004404 51 270 0.0 0.0 0.00 0.00 0.00 61 1017.1
20260508003905 52 267 0.0 0.0 0.00 0.00 0.00 60 1017.1
20260508002404 53 292 0.0 0.0 0.00 0.00 0.00 58 1016.7
20260508001905 53 248 0.0 0.0 0.00 0.00 0.00 58 1016.7
20260508000905 53 264 1.7 1.7 0.00 0.00 0.00 58 1016.7
20260508000405 54 270 0.0 2.6 0.00 0.00 0.00 57 1016.7
20260507235905 54 270 0.9 2.6 0.00 0.00 0.00 56 1016.7
20260507235404 54 270 0.0 5.2 0.00 0.00 0.00 56 1016.7
20260507234904 55 292 0.0 0.0 0.00 0.00 0.00 54 1016.7
20260507233905 57 282 5.2 6.1 0.00 0.00 0.00 53 1016.7
20260507233404 57 270 0.0 0.0 0.00 0.00 0.00 53 1016.7
20260507232904 56 270 0.9 0.9 0.00 0.00 0.00 53 1016.7
20260507232405 56 267 0.0 7.8 0.00 0.00 0.00 52 1016.7
20260507231904 56 248 0.9 7.8 0.00 0.00 0.00 53 1016.7
20260507231404 57 248 3.5 7.8 0.00 0.00 0.00 53 1016.7
20260507230904 57 266 2.6 7.0 0.00 0.00 0.00 52 1016.7
20260507230404 57 270 0.9 10.4 0.00 0.00 0.00 51 1016.7
20260507225905 58 292 4.3 10.4 0.00 0.00 0.00 51 1016.7
20260507225404 58 240 3.5 6.1 0.00 0.00 0.00 51 1016.8
20260507224904 58 292 5.2 6.1 0.00 0.00 0.00 52 1017.1
20260507222905 58 270 8.7 13.0 0.00 0.00 0.00 52 1017.1
20260507222404 58 248 0.0 0.9 0.00 0.00 0.00 52 1016.7
20260507221404 58 292 4.3 8.7 0.00 0.00 0.00 52 1016.7
20260507220905 58 270 0.0 6.1 0.00 0.00 0.00 53 1016.7
20260507220404 57 270 0.0 0.9 0.00 0.00 0.00 55 1016.7
20260507215905 56 270 0.9 2.6 0.00 0.00 0.00 54 1016.7
20260507215405 57 248 6.1 6.1 0.00 0.00 0.00 53 1016.7
20260507214904 57 248 0.0 6.1 0.00 0.00 0.00 53 1016.7
20260507214405 57 225 3.5 6.1 0.00 0.00 0.00 53 1016.4
20260507213904 57 255 0.0 6.1 0.00 0.00 0.00 52 1016.4
20260507213404 57 270 4.3 11.3 0.00 0.00 0.00 53 1016.6
20260507212905 57 225 4.3 11.3 0.00 0.00 0.00 52 1016.4
20260507212404 57 248 5.2 6.1 0.00 0.00 0.00 52 1016.4
20260507211904 57 225 6.1 6.1 0.00 0.00 0.00 52 1016.4
20260507211405 58 270 0.0 1.7 0.00 0.00 0.00 52 1016.4
20260507210905 58 282 0.0 1.7 0.00 0.00 0.00 53 1016.3
20260507210405 57 225 0.0 5.2 0.00 0.00 0.00 53 1016.4
20260507205404 56 270 0.0 0.0 0.00 0.00 0.00 53 1016.4
20260507204905 56 292 0.0 0.0 0.00 0.00 0.00 53 1016.1
20260507204405 57 248 0.0 0.0 0.00 0.00 0.00 53 1016.4
20260507203905 57 286 6.1 7.0 0.00 0.00 0.00 51 1016.4
20260507203404 58 292 0.9 8.7 0.00 0.00 0.00 49 1016.4
20260507202904 58 292 8.7 8.7 0.00 0.00 0.00 49 1016.4
20260507202404 58 233 1.7 8.7 0.00 0.00 0.00 50 1016.4
20260507201905 58 270 0.0 0.0 0.00 0.00 0.00 51 1016.4
20260507201404 57 315 0.0 1.7 0.00 0.00 0.00 50 1016.4
20260507200404 58 270 1.7 5.2 0.00 0.00 0.00 49 1016.4
20260507195904 58 338 0.0 1.7 0.00 0.00 0.00 49 1016.4
20260507195405 57 280 0.9 6.1 0.00 0.00 0.00 49 1016.7
20260507194405 57 270 4.3 6.1 0.00 0.00 0.00 49 1016.7
20260507193904 57 280 0.0 1.7 0.00 0.00 0.00 52 1016.7
20260507192904 56 292 0.0 4.3 0.00 0.00 0.00 52 1017.1
20260507192404 57 278 0.0 4.3 0.00 0.00 0.00 53 1017.1
20260507191904 57 292 0.9 6.1 0.00 0.00 0.00 52 1017.1
20260507191404 57 292 1.7 6.1 0.00 0.00 0.00 53 1017.1
20260507190404 57 292 0.0 0.9 0.00 0.00 0.00 53 1017.1
20260507185904 57 292 0.9 6.1 0.00 0.00 0.00 53 1017.1
20260507184904 57 292 0.0 0.0 0.00 0.00 0.00 55 1017.1
20260507184404 56 270 2.6 5.2 0.00 0.00 0.00 55 1017.1
20260507183905 57 292 8.7 10.4 0.00 0.00 0.00 54 1017.1
20260507182404 57 315 0.0 6.1 0.00 0.00 0.00 54 1009.8
20260507181904 57 292 0.0 0.0 0.00 0.00 0.00 53 1010.1
20260507181405 57 292 0.0 0.0 0.00 0.00 0.00 53 1010.1
20260507180905 57 305 5.2 6.1 0.00 0.00 0.00 53 1009.8
20260507180404 57 338 0.9 6.1 0.00 0.00 0.00 52 1009.8
20260507175404 57 279 0.0 7.8 0.00 0.00 0.00 50 1009.8
20260507174904 57 315 5.2 7.8 0.00 0.00 0.00 50 1009.8
20260507174404 57 292 2.6 2.6 0.00 0.00 0.00 50 1009.9
20260507173404 57 315 0.0 0.0 0.00 0.00 0.00 55 1010.0
20260507172904 57 270 2.6 2.6 0.00 0.00 0.00 54 1009.8
20260507172405 57 292 0.9 7.8 0.00 0.02 0.00 55 1010.1
20260507171404 57 292 0.0 0.0 0.00 0.02 0.00 54 1010.1
20260507170904 57 283 8.7 10.4 0.00 0.02 0.00 52 1010.1
20260507170404 58 270 2.6 5.2 0.00 0.02 0.00 51 1010.1
20260507165904 58 314 0.9 2.6 0.00 0.02 0.00 53 1010.1
20260507164905 58 315 0.0 0.0 0.00 0.02 0.00 56 1010.1
20260507163904 58 289 0.0 0.0 0.00 0.02 0.00 58 1010.1
20260507163404 57 270 0.0 0.0 0.00 0.02 0.00 59 1010.1
20260507162905 57 292 0.0 0.0 0.00 0.02 0.00 59 1010.1
20260507162404 57 283 0.0 0.0 0.00 0.02 0.00 61 1010.1
20260507161904 57 270 0.0 0.0 0.00 0.02 0.00 62 1010.1
20260507161405 57 270 0.9 0.9 0.00 0.02 0.00 63 1010.1
20260507160905 56 292 0.0 0.0 0.00 0.02 0.00 63 1010.1
20260507160404 56 270 0.0 0.9 0.00 0.02 0.00 61 1010.1
20260507155904 56 270 0.9 0.9 0.00 0.02 0.00 60 1010.1
20260507155405 57 284 0.0 4.3 0.00 0.02 0.00 61 1010.1
20260507154904 57 292 0.0 0.0 0.00 0.02 0.00 60 1010.1
20260507154404 57 292 0.0 0.0 0.00 0.02 0.00 61 1010.1
20260507153404 56 270 0.0 0.0 0.00 0.02 0.00 60 1010.1
20260507152904 56 270 1.7 1.7 0.00 0.02 0.00 59 1010.1
20260507152405 56 292 0.0 1.7 0.00 0.02 0.00 59 1010.1
20260507151904 56 292 0.0 0.0 0.00 0.02 0.00 61 1010.1
20260507151404 56 292 4.3 6.1 0.00 0.02 0.00 61 1010.1
20260507150904 56 278 0.0 0.0 0.00 0.02 0.00 62 1010.1
20260507150404 57 270 0.0 0.9 0.00 0.02 0.00 62 1010.1
20260507145405 57 259 0.0 6.1 0.00 0.02 0.00 67 1010.1
20260507144904 57 292 3.5 6.1 0.00 0.02 0.00 67 1010.1
20260507144404 57 292 2.6 2.6 0.00 0.02 0.00 67 1010.1
20260507143905 57 287 0.9 2.6 0.00 0.02 0.00 68 1010.1
20260507143404 56 315 2.6 2.6 0.00 0.02 0.00 67 1009.8
20260507142404 56 292 3.5 4.3 0.00 0.02 0.00 70 1010.1
20260507141404 55 292 0.9 5.2 0.00 0.02 0.00 69 1010.1
20260507140904 55 250 0.9 4.3 0.00 0.02 0.00 69 1010.1
20260507140406 55 292 2.6 4.3 0.00 0.02 0.00 69 1010.1
20260507135904 55 292 5.2 7.0 0.00 0.02 0.00 69 1010.1
20260507135404 54 248 2.6 4.3 0.00 0.02 0.00 68 1010.1
20260507134904 53 292 0.0 0.0 0.00 0.02 0.00 68 1010.1
20260507134404 53 336 0.0 0.0 0.00 0.02 0.00 68 1010.4
20260507133904 53 303 0.9 4.3 0.00 0.02 0.00 69 1010.4
20260507133404 52 248 0.0 0.0 0.00 0.02 0.00 69 1010.4
20260507132904 52 283 0.0 0.0 0.00 0.02 0.00 70 1010.4
20260507132405 52 265 0.0 5.2 0.00 0.02 0.00 73 1010.1
20260507131906 52 292 4.3 5.2 0.00 0.02 0.00 72 1010.1
20260507130904 52 292 0.9 4.3 0.00 0.02 0.00 72 1010.1
20260507125904 52 250 2.6 7.0 0.00 0.02 0.00 72 1010.1
20260507125405 51 232 5.2 7.0 0.00 0.02 0.00 71 1010.1
20260507124904 51 292 0.9 2.6 0.00 0.02 0.00 71 1010.1
20260507123904 51 203 0.0 0.0 0.00 0.02 0.00 72 1010.1
20260507123405 50 248 0.0 0.0 0.00 0.02 0.00 72 1010.1
20260507122904 50 246 0.0 0.0 0.00 0.02 0.00 72 1010.1
20260507122404 49 248 0.0 0.0 0.00 0.02 0.00 73 1010.1
20260507121904 49 248 0.0 0.0 0.00 0.02 0.00 73 1010.1
20260507121404 49 270 0.0 0.0 0.00 0.02 0.00 73 1010.1
20260507120904 48 194 0.0 0.0 0.00 0.02 0.00 74 1010.1
20260507120404 48 180 0.0 0.0 0.00 0.02 0.00 74 1009.9
20260507115904 48 180 0.0 0.0 0.00 0.02 0.00 74 1010.1
20260507115404 47 180 0.0 0.0 0.00 0.02 0.00 74 1010.1
20260507114904 47 180 0.0 0.0 0.00 0.02 0.00 74 1010.1
20260507114404 47 180 0.0 0.0 0.00 0.02 0.00 74 1009.9
20260507113905 47 202 0.0 0.0 0.00 0.02 0.00 75 1010.0
20260507113404 46 202 0.0 0.0 0.00 0.02 0.00 75 1009.8
20260507112404 46 180 0.0 0.0 0.00 0.02 0.00 76 1009.8
20260507111905 46 180 0.0 0.0 0.00 0.02 0.00 76 1009.8
20260507110905 46 185 0.0 0.0 0.00 0.02 0.00 75 1009.8
20260507110404 46 180 0.0 0.0 0.00 0.02 0.00 75 1009.5
20260507105904 45 183 0.0 0.0 0.00 0.02 0.00 75 1009.8
20260507104905 45 202 0.0 0.0 0.00 0.02 0.00 76 1009.4
20260507104405 45 202 0.0 0.0 0.00 0.02 0.00 76 1009.8
20260507103904 45 202 0.0 0.0 0.00 0.02 0.00 76 1009.4
20260507103404 45 202 0.0 0.0 0.00 0.02 0.00 76 1009.4
20260507102904 45 202 0.0 0.0 0.00 0.02 0.00 76 1009.4
20260507102404 45 202 0.0 0.0 0.00 0.02 0.00 75 1009.4
20260507100904 45 183 0.0 0.0 0.00 0.02 0.00 76 1009.2
20260507100405 45 180 0.0 0.0 0.00 0.02 0.00 76 1009.4
20260507095904 45 202 0.0 0.0 0.00 0.02 0.00 76 1009.4
20260507095404 45 182 0.0 0.0 0.00 0.02 0.00 76 1009.4
20260507094904 45 202 0.0 0.0 0.00 0.02 0.00 76 1009.4
20260507094404 45 180 0.0 0.0 0.00 0.02 0.00 76 1009.4
20260507093904 45 197 0.0 0.0 0.00 0.02 0.00 76 1009.1
20260507092904 45 180 0.0 0.0 0.00 0.02 0.00 76 1009.4
20260507092404 45 180 0.0 0.0 0.00 0.02 0.00 76 1009.4
20260507091904 45 180 0.0 0.0 0.00 0.02 0.00 77 1009.4
20260507091404 44 187 0.0 0.0 0.00 0.04 0.00 77 1009.4
20260507090405 44 180 0.0 0.0 0.00 0.04 0.00 77 1009.4
20260507085904 44 201 0.0 0.0 0.00 0.04 0.00 77 1009.3
20260507085404 44 202 0.0 0.0 0.00 0.04 0.00 77 1009.4
20260507084404 44 196 0.0 0.0 0.00 0.04 0.00 76 1009.4
20260507083905 44 202 1.7 1.7 0.00 0.04 0.00 76 1009.4
20260507083404 44 202 1.7 2.6 0.00 0.06 0.00 76 1009.6
20260507082905 44 180 0.0 0.0 0.00 0.06 0.00 76 1009.4
20260507081904 44 202 0.0 0.0 0.00 0.06 0.00 76 1009.8
20260507081404 44 180 0.0 0.0 0.00 0.06 0.00 76 1009.8
20260507080904 44 180 0.0 0.0 0.00 0.06 0.00 75 1009.8
20260507080405 44 180 0.0 0.0 0.00 0.06 0.00 75 1009.8
20260507075904 44 180 0.0 0.0 0.00 0.06 0.00 75 1009.8
20260507075404 44 199 0.0 0.0 0.00 0.06 0.00 75 1009.8
20260507074905 44 202 0.0 0.0 0.00 0.06 0.00 75 1009.8
20260507073904 44 201 0.0 4.3 0.00 0.08 0.00 75 1009.8
20260507072404 44 202 0.0 0.0 0.00 0.08 0.00 75 1009.8
20260507071905 44 180 0.0 0.0 0.00 0.08 0.00 75 1009.8
20260507071404 44 202 0.0 0.0 0.00 0.08 0.00 75 1009.8
20260507070904 44 180 0.0 0.0 0.00 0.08 0.00 76 1009.8
20260507065904 44 186 2.6 2.6 0.00 0.08 0.00 76 1009.8
20260507064905 44 180 5.2 6.1 0.00 0.08 0.00 76 1009.8
20260507064403 43 189 0.9 5.2 0.00 0.08 0.00 76 1009.8
20260507063904 43 202 0.0 0.0 0.00 0.08 0.00 75 1009.8
20260507062904 43 180 0.0 0.0 0.00 0.08 0.00 75 1010.1
20260507061904 43 180 0.0 0.0 0.00 0.08 0.00 75 1010.1
20260507061404 43 185 0.0 0.0 0.00 0.08 0.00 74 1010.1
20260507060405 43 158 0.9 1.7 0.00 0.08 0.00 74 1010.1
20260507055904 43 197 0.0 0.0 0.00 0.08 0.00 74 1010.4
20260507055404 43 180 0.0 0.0 0.00 0.08 0.00 74 1010.1